Location: ????????
(55.7827°N, 38.1163°E)
Time: 07:32:53
(UTC+00:00)

Daily predictions for brighter satellites

Satellite Brightness Start Highest point End
(mag) Time Altitude Azimuth Time Altitude Azimuth Time Altitude Azimuth
NOSS 3-2 (C) 4.1 13:34:09 10° S 13:38:45 33° ESE 13:44:09 10° ENE
Cosmos 2297 Rocket 2.7 13:34:09 10° NW 13:39:49 70° WSW 13:45:27 10° SSE
Cosmos 2034 Rocket 4.3 13:34:45 10° SSW 13:41:06 74° WNW 13:47:31 10° N
Cosmos 2266 Rocket 4.2 13:35:10 10° N 13:41:08 49° ENE 13:46:59 10° SE
ACS3 Solar Sail 4.3 13:38:53 10° WSW 13:41:32 13° WNW 13:44:12 10° NW
Cosmos 1626 Rocket 3.5 13:37:22 10° NNW 13:41:43 85° ENE 13:46:01 10° SSE
Meteor 1-20 Rocket 4.3 13:36:20 10° N 13:41:43 54° ENE 13:47:04 10° SSE
Cosmos 1356 Rocket 3.4 13:39:41 10° SSW 13:43:46 87° WNW 13:47:55 10° NNE
Cosmos 2228 3.0 13:40:23 10° S 13:44:37 77° E 13:48:53 10° NNE
SJ 16-02 3.7 13:45:58 10° NW 13:47:22 11° NNW 13:48:45 10° NNW
Cosmos 2084 3.9 13:44:11 10° W 13:48:15 49° NNW 13:52:17 10° NE
Cosmos 44 Rocket 4.1 13:45:03 10° NW 13:49:41 34° NNE 13:54:24 10° E
Iridium 51 3.7 13:47:24 10° S 13:50:34 78° E 13:53:48 10° N
JB-3 4.3 13:49:14 10° NNE 13:52:50 54° E 13:56:24 10° S
Cosmos 1315 Rocket 3.1 13:50:21 10° SSW 13:54:09 65° WNW 13:57:58 10° N
IGS 5A 3.4 13:50:42 10° SSE 13:54:35 55° ENE 13:58:30 10° N
CZ-4C R/B 3.5 13:49:10 10° NW 13:55:44 63° SW 14:03:59 10° SSE
Cosmos 1461 3.4 13:52:42 10° SSW 13:56:21 39° SE 13:59:53 11° ENE
Cosmos 2151 2.9 13:52:22 10° N 13:56:32 66° ENE 14:00:41 10° SSE
Cosmos 1867 4.3 13:52:32 10° NW 13:57:56 60° SW 14:03:16 10° SSE
ARIANE 5 R/B 2.9 13:54:14 10° SE 13:58:59 41° ENE 14:03:50 10° N
Cosmos 1844 Rocket 3.7 13:55:46 10° NNW 14:00:32 27° NNE 14:05:18 10° E
USA 290 4.2 13:58:11 10° NW 14:01:12 34° WSW 14:04:11 10° S
CORIOLIS 4.2 13:58:56 10° SE 14:04:09 57° ENE 14:09:25 10° N
Cosmos 1544 Rocket 3.6 13:59:50 10° S 14:04:14 71° E 14:08:40 10° NNE
Cosmos 2219 3.4 13:58:43 10° NNW 14:04:19 50° NE 14:09:53 10° ESE
CENTAUR R/B 2.9 14:00:06 10° WSW 14:06:15 67° NNW 14:13:39 12° NE
Cosmos 1980 Rocket 3.6 14:03:14 10° SE 14:07:11 20° E 14:10:31 12° ENE
Cosmos 2263 Rocket 2.2 14:04:11 10° NNW 14:09:51 68° NE 14:15:31 10° SE
H-2A R/B 4.5 14:08:22 10° N 14:11:05 19° WNW 14:13:45 10° WSW
IRS-1C 4.3 14:06:34 10° SE 14:11:41 50° ENE 14:16:50 10° N
Meteor 1-28 Rocket 3.3 14:12:38 10° NNE 14:15:50 40° E 14:19:00 10° S
CBERS-1 4.1 14:12:39 10° SSE 14:17:47 84° WSW 14:22:56 10° NNW
Cosmos 1943 Rocket 3.9 14:15:15 10° NW 14:18:45 17° N 14:22:04 11° NE
Meteor 1-5 Rocket 4.2 14:14:02 10° N 14:19:18 56° ENE 14:24:41 10° SSE
NOSS 2-2 (D) 2.6 14:18:13 10° SW 14:21:19 78° NW 14:23:28 18° NE
Cosmos 1602 Rocket 3.8 14:17:06 10° NNW 14:21:30 74° W 14:25:50 10° S
CZ-2D R/B 4.5 14:20:50 10° ESE 14:24:10 24° ENE 14:27:28 10° N
CZ-2D R/B 3.1 14:21:46 10° SE 14:24:44 40° ENE 14:27:44 10° N
Cosmos 1782 2.8 14:22:08 10° SSW 14:25:42 70° WNW 14:29:18 10° N
SPOT 1/Viking Rocket 4.1 14:21:18 10° SE 14:26:01 36° ENE 14:30:45 10° N
SAR-Lupe-4 3.7 14:23:42 10° SE 14:27:08 49° ENE 14:30:36 10° N
AQUARIUS 4.3 14:23:07 10° SE 14:27:21 47° ENE 14:31:36 10° N
Cosmos 1538 Rocket 4.0 14:22:03 10° NNW 14:27:21 71° ENE 14:32:41 10° SE
NOSS 2-3 (E) 4.5 14:24:40 10° S 14:27:41 24° ESE 14:29:28 17° E
YAOGAN 1 3.6 14:24:37 10° ESE 14:28:01 24° ENE 14:31:25 10° N
Meteor 1-25 Rocket 4.3 14:24:11 10° NNW 14:30:03 90° ENE 14:35:50 10° SSE
Cosmos 2227 Rocket 2.7 14:26:00 10° NW 14:31:36 64° WSW 14:37:10 10° SSE
Okean 1-7 Rocket 3.7 14:29:06 10° NNW 14:33:31 80° W 14:37:53 10° S
SL-16 R/B 2.5 14:28:39 10° NNE 14:34:55 81° ESE 14:41:08 10° SSW
Cosmos 2369 Rocket 3.8 14:32:44 10° W 14:37:20 24° NNW 14:41:53 10° NNE
Cosmos 1933 3.2 14:34:30 10° S 14:38:14 58° E 14:41:44 12° NNE
Cosmos 1743 4.3 14:36:27 10° NNW 14:39:23 31° W 14:42:16 10° SSW
Cosmos 1503 Rocket 3.9 14:34:37 10° SSW 14:39:50 80° ESE 14:44:30 13° NNE
USA 238 DEB 4.3 14:34:50 10° S 14:40:16 33° ESE 14:44:05 19° ENE
MOS 1 Rocket 3.5 14:35:20 10° SSE 14:40:21 62° ENE 14:45:36 10° N
USA 238 4.3 14:34:57 10° S 14:40:23 33° ESE 14:44:11 19° ENE
SAR-Lupe-1 4.0 14:37:02 10° SSE 14:40:35 59° ENE 14:44:10 10° N
SMAP 3.1 14:36:42 10° SSE 14:41:22 86° WSW 14:46:04 10° NNW
Lacrosse 4 Rocket 3.0 14:39:23 10° W 14:42:38 23° NNW 14:45:13 13° NNE
PSLV R/B 4.3 14:40:53 12° ESE 14:43:53 26° ENE 14:47:19 10° N
Landsat 7 3.7 14:40:32 10° SSE 14:45:11 84° ENE 14:49:53 10° NNW
USA 215 3.3 14:40:15 17° ENE 14:45:30 84° N 14:52:05 10° W
Cosmos 1697 Rocket 2.7 14:40:05 10° SSW 14:45:37 64° ESE 14:49:54 17° NE
Cosmos 1953 Rocket 3.5 14:42:11 10° N 14:46:37 68° ENE 14:51:04 10° SSE
Lacrosse 5 rocket 1.0 14:43:31 10° W 14:47:15 71° N 14:49:01 28° E
Thor Agena Rocket 4.0 14:43:37 10° S 14:48:46 66° WSW 14:53:53 10° NNW
NOSS 2-2 (E) 3.0 14:46:51 10° WSW 14:49:53 57° NNW 14:51:12 29° NE
Cosmos 1656 4.2 14:45:25 10° SW 14:51:01 59° NW 14:55:57 14° NNE
Cosmos 2360 4.4 14:45:29 10° SW 14:51:13 73° NW 14:56:03 15° NNE
Cosmos 1354 Rocket 4.0 14:46:15 10° SSW 14:51:29 73° ESE 14:55:39 16° NNE
Cosmos 1777 Rocket 4.1 14:46:31 10° SSW 14:51:46 77° WNW 14:56:25 13° NNE
SJ-12 3.6 14:48:27 10° SSE 14:52:14 84° ENE 14:56:03 10° NNW
Cosmos 2278 Rocket 3.9 14:48:42 10° NW 14:52:27 18° N 14:54:34 15° NNE
BREEZE-M DEB (TANK) 4.4 14:50:17 10° WSW 14:53:21 40° S 15:01:43 10° ESE
Cosmos 1825 Rocket 3.8 14:49:29 10° NNW 14:53:50 69° W 14:58:07 10° S
Cosmos 1076 Rocket 3.4 14:51:26 10° NNW 14:55:46 86° ENE 15:00:06 10° SSE
Cosmos 1898 Rocket 4.2 14:53:21 10° SSE 14:57:50 31° ESE 14:59:22 26° ENE
NOSS 2-2 (C) 3.9 14:55:23 10° W 14:58:07 31° NNW 14:59:06 25° NNE
ERS-1 4.4 14:54:35 10° SSE 14:59:35 89° E 15:04:35 10° NNW
Cosmos 2112 Rocket 4.3 14:54:53 10° NNW 14:59:53 44° NE 15:04:01 15° ESE
Spot 4 Rocket 4.2 14:55:17 10° SE 15:00:10 48° ENE 15:05:05 10° N
IRS-P3 4.0 14:55:22 10° SSE 15:00:41 81° ENE 15:06:03 10° NNW
Cosmos 2098 Rocket 4.3 14:58:44 10° SW 15:03:15 48° WNW 15:08:28 10° N
Cosmos 1805 2.8 15:02:11 10° N 15:05:31 56° ENE 15:08:50 10° SSE
Cosmos 1655 Rocket 4.0 15:01:36 10° NNW 15:07:53 85° W 15:14:06 10° S
Cosmos 923 Rocket 3.9 15:03:30 10° NNW 15:08:43 70° ENE 15:13:54 10° SE
Radarsat Rocket 4.4 15:02:07 10° SE 15:09:45 61° ENE 15:16:30 10° NNW
Cosmos 1937 Rocket 4.2 15:07:26 10° SSE 15:11:54 30° ESE 15:12:17 30° E
Cosmos 990 Rocket 3.9 15:09:07 10° SSW 15:14:16 90° ESE 15:17:45 21° NNE
Cosmos 1844 3.8 15:09:17 10° NNW 15:14:44 50° NE 15:17:29 27° ESE
GEOS 3 Rocket 4.0 15:12:45 30° ENE 15:15:03 48° SE 15:20:15 10° SSW
Resurs 01 Rocket 3.1 15:18:08 21° NNE 15:18:08 21° NNE 15:19:57 10° N
Cosmos 494 Rocket 4.1 15:14:57 10° NNW 15:20:06 51° NE 15:22:41 27° ESE
Cosmos 2082 3.8 15:15:05 10° NW 15:20:49 78° WSW 15:26:32 10° SSE
Meteor 2-11 Rocket 4.5 15:14:47 10° N 15:20:53 56° ENE 15:26:55 10° SSE
Gbstr 26 Del rocket 3.5 15:18:23 10° SW 15:22:07 38° SSE 15:22:51 34° SE
SJ-7 4.1 15:23:14 41° SE 15:24:18 59° ENE 15:28:02 10° N
NOSS 3-2 (A) 3.8 15:19:46 10° W 15:25:13 54° NNW 15:28:38 28° NE
Cosmos 2084 4.4 15:23:54 10° WNW 15:27:37 30° N 15:28:08 29° NNE
Cosmos 2058 Rocket 3.0 15:23:46 10° S 15:28:11 64° E 15:29:48 37° NNE
Cosmos 1048 Rocket 4.5 15:23:47 10° NNW 15:28:47 39° NE 15:29:08 38° ENE
NOSS 3-2 (C) 3.4 15:23:39 10° WSW 15:29:02 75° NW 15:32:13 31° NE
CZ-4 R/B 4.3 15:25:48 10° SSE 15:29:45 80° WSW 15:33:44 10° NNW
IRAS Rocket 4.1 15:25:06 10° SSE 15:30:32 68° ENE 15:36:00 10° NNW
Cosmos 44 Rocket 3.3 15:26:37 10° NW 15:31:46 79° NE 15:34:02 34° ESE
Cosmos 1606 Rocket 4.3 15:28:04 10° SSW 15:32:24 52° WNW 15:36:35 11° N
Cosmos 2227 4.1 15:27:12 10° NNW 15:32:53 71° NE 15:36:18 25° SE
Cosmos 1461 3.4 15:29:17 10° WSW 15:33:05 46° NNW 15:34:00 38° N
Aureole 1 Rocket 3.5 15:29:05 10° SSW 15:34:00 72° ESE 15:37:03 30° NE
Meteor 2-9 Rocket 4.3 15:30:48 10° N 15:35:57 45° ENE 15:36:11 44° ENE
SL-16 R/B 3.9 15:32:34 10° SSE 15:34:05 16° SE 15:34:05 16° SE
ARIANE 5 R/B 3.8 15:33:14 10° S 15:38:04 42° W 15:42:58 10° NNW
Okean 1 4.2 15:35:51 10° S 15:37:57 32° SSE 15:37:57 32° SSE
Cosmos-2242 2.8 15:35:34 10° S 15:39:48 75° E 15:40:30 59° NE
Cosmos 1680 Rocket 3.4 15:34:47 10° NNW 15:40:02 88° ENE 15:45:17 10° SSE
Cosmos 1844 Rocket 2.6 15:39:37 10° NNW 15:45:19 75° NE 15:47:51 34° SE
Resurs 1-3 3.5 15:42:51 10° SSE 15:47:10 85° WSW 15:51:31 10° NNW
Cosmos 2219 4.3 15:43:02 10° NW 15:48:28 45° WSW 15:53:54 10° S
Nadezhda 2 Rocket 4.4 15:42:58 10° NNW 15:49:07 83° W 15:55:13 10° S
NOAA 6 3.8 15:44:14 10° SSE 15:49:19 78° ENE 15:54:26 10° NNW
Cosmos 1980 Rocket 2.1 15:44:45 10° SSW 15:50:24 85° ESE 15:52:17 44° NE
USA 281 3.9 15:50:37 32° NE 15:50:50 32° NE 15:56:30 10° NNW
Cosmos 2263 Rocket 4.0 15:48:30 10° NW 15:53:25 31° WSW 15:58:19 10° SSW
OceanSat 1 rocket 4.5 15:50:04 10° SSE 15:54:47 90° WSW 15:59:32 10° NNW
Meteor 2-2 Rocket 4.1 15:51:28 10° S 15:57:06 85° ESE 16:00:13 28° NNE
Cosmos 1553 Rocket 3.8 15:51:42 10° S 15:57:53 77° E 16:04:12 10° NNE
CENTAUR R/B 3.4 15:51:25 10° WNW 15:58:01 48° N 16:00:45 36° NE
CZ-2D R/B 4.1 15:54:45 10° S 15:58:50 55° WSW 16:02:53 10° NNW
EO 1 Delta rocket 4.3 15:58:37 56° E 15:58:57 57° ENE 16:05:19 10° N
NOSS 2-3 (C) 3.7 15:56:59 10° SW 15:59:41 53° SW 15:59:41 53° SW
COSMOS 2455 3.5 15:55:16 10° S 15:59:48 37° SE 15:59:48 37° SE
Meteor 1-26 Rocket 4.0 15:55:56 10° SSW 16:01:20 88° WNW 16:03:54 33° NNE
YAOGAN 1 3.0 15:59:21 10° S 16:03:34 60° WSW 16:07:48 10° NNW
Cosmos 1943 Rocket 3.7 16:00:12 10° NNW 16:03:34 22° N 16:03:34 22° N
Cosmos 1709 Rocket 3.8 15:58:48 10° N 16:04:53 62° ENE 16:05:39 57° ESE
SPOT 1/Viking Rocket 4.5 16:00:14 10° S 16:05:16 49° W 16:10:20 10° NNW
Meteor 2-20 Rocket 4.5 16:01:18 10° SSW 16:07:26 77° WNW 16:12:37 14° N
Cosmos 1745 Rocket 3.8 16:03:41 10° N 16:09:55 83° ENE 16:16:03 10° SSE
Cosmos 2369 3.5 16:04:32 10° SSW 16:10:15 74° ESE 16:10:35 71° E
NOSS 2-3 (D) 4.2 16:12:14 10° WSW 16:15:00 46° W 16:15:00 46° W
SKYMED 2 3.9 16:16:13 66° W 16:16:13 66° W 16:20:21 10° SSW
NOSS 2-3 (E) 4.3 16:13:34 10° WSW 16:16:17 45° W 16:16:17 45° W
SL-16 R/B 4.2 16:12:43 10° N 16:17:59 30° NW 16:23:13 10° WSW
PSLV R/B 4.3 16:17:07 28° SSW 16:18:54 48° W 16:22:53 10° NNW
Lacrosse 4 Rocket 3.8 16:19:34 10° NW 16:20:42 13° NNW 16:20:42 13° NNW
Cosmos 2369 Rocket 4.1 16:19:39 10° NW 16:23:25 18° N 16:23:38 18° N
Lacrosse 5 rocket 2.9 16:20:39 10° WNW 16:22:36 29° W 16:22:36 29° W
COSMO-SKYMED 1 4.4 16:27:44 22° SSW 16:27:44 22° SSW 16:29:16 10° SSW
USA 215 3.1 16:27:35 68° E 16:28:32 87° NNE 16:35:08 10° WNW
Cosmos 1697 Rocket 3.8 16:24:42 10° WSW 16:29:55 38° NW 16:31:37 31° N
USA 238 DEB 3.5 16:24:15 10° SW 16:30:35 83° NW 16:31:31 68° NE
USA 238 3.5 16:24:22 10° SW 16:30:42 84° NW 16:31:37 68° NE
Cosmos 2278 Rocket 3.8 16:33:32 10° NNW 16:36:24 23° N 16:36:24 23° N
Cosmos 1898 Rocket 3.9 16:34:29 10° SW 16:39:35 57° NW 16:39:35 57° NW
Cosmos 2333 Rocket 4.4 16:35:57 10° S 16:36:34 13° S 16:36:34 13° S
Resurs 01 Rocket 4.0 16:55:31 17° NNW 16:55:31 17° NNW 16:56:38 10° NNW
GEOS 3 Rocket 4.2 16:53:48 57° WNW 16:53:48 57° WNW 16:58:29 10° WSW
Cosmos 1937 Rocket 4.3 16:48:25 10° SW 16:52:24 47° WSW 16:52:24 47° WSW
Meteor 1-11 Rocket 4.2 16:50:24 10° NNW 16:55:23 59° NW 16:55:23 59° NW
NOSS 3-2 (A) 4.4 17:11:18 10° WNW 17:15:59 41° NNW 17:15:59 41° NNW
SL-16 R/B 4.2 17:14:33 10° SSW 17:15:59 18° SW 17:15:59 18° SW
NOSS 3-2 (C) 4.4 17:15:06 10° W 17:19:38 41° NNW 17:19:38 41° NNW
Cosmos 1844 Rocket 4.4 17:24:03 10° NW 17:28:43 27° WSW 17:29:33 26° WSW
USA 281 4.2 17:37:29 39° NNW 17:37:29 39° NNW 17:41:21 10° NNW
Cosmos 1980 Rocket 3.8 17:30:02 10° W 17:34:03 29° NW 17:34:03 29° NW
Cosmos 1943 Rocket 4.5 17:43:55 10° NNW 17:45:03 16° NNW 17:45:03 16° NNW
CENTAUR R/B 3.7 17:42:31 10° WNW 17:47:51 49° NNW 17:47:51 49° NNW
